TimeMDT,TemperatureF,Dew PointF,Humidity,Sea Level PressureIn,VisibilityMPH,Wind Direction,Wind SpeedMPH,Gust SpeedMPH,PrecipitationIn,Events,Conditions,WindDirDegrees,DateUTC
12:15 AM,60.8,50.0,68,30.18,10.0,SW,3.5,-,N/A,,Clear,230,2013-08-10 06:15:00
12:35 AM,59.0,51.8,77,30.18,10.0,SW,3.5,-,N/A,,Partly Cloudy,220,2013-08-10 06:35:00
12:55 AM,59.0,51.8,77,30.19,10.0,South,3.5,-,N/A,,Partly Cloudy,190,2013-08-10 06:55:00
1:15 AM,57.2,50.0,77,30.19,10.0,SSW,3.5,-,N/A,,Clear,210,2013-08-10 07:15:00
1:35 AM,57.2,50.0,77,30.19,10.0,South,3.5,-,N/A,,Clear,190,2013-08-10 07:35:00
1:55 AM,57.2,50.0,77,30.19,10.0,Calm,Calm,-,N/A,,Clear,0,2013-08-10 07:55:00
2:15 AM,53.6,48.2,82,30.18,10.0,Calm,Calm,-,N/A,,Clear,0,2013-08-10 08:15:00
2:35 AM,53.6,48.2,82,30.18,10.0,Calm,Calm,-,N/A,,Clear,0,2013-08-10 08:35:00
2:55 AM,55.4,48.2,77,30.18,10.0,Calm,Calm,-,N/A,,Clear,0,2013-08-10 08:55:00
3:15 AM,55.4,48.2,77,30.19,10.0,Calm,Calm,-,N/A,,Clear,0,2013-08-10 09:15:00
3:35 AM,51.8,46.4,82,30.19,10.0,Calm,Calm,-,N/A,,Clear,0,2013-08-10 09:35:00
3:55 AM,53.6,46.4,77,30.18,10.0,South,5.8,-,N/A,,Clear,180,2013-08-10 09:55:00
4:15 AM,55.4,48.2,77,30.18,10.0,SSW,4.6,-,N/A,,Clear,210,2013-08-10 10:15:00
4:35 AM,53.6,48.2,82,30.18,10.0,Calm,Calm,-,N/A,,Clear,0,2013-08-10 10:35:00
4:55 AM,53.6,46.4,77,30.18,10.0,SSE,4.6,-,N/A,,Clear,150,2013-08-10 10:55:00
5:15 AM,53.6,46.4,77,30.18,10.0,SSE,3.5,-,N/A,,Clear,160,2013-08-10 11:15:00
5:35 AM,53.6,46.4,77,30.17,10.0,South,6.9,-,N/A,,Clear,180,2013-08-10 11:35:00
5:55 AM,55.4,48.2,77,30.17,10.0,WSW,4.6,-,N/A,,Clear,240,2013-08-10 11:55:00
6:15 AM,53.6,48.2,82,30.18,10.0,South,5.8,-,N/A,,Clear,180,2013-08-10 12:15:00
6:35 AM,55.4,48.2,77,30.17,10.0,SSW,8.1,-,N/A,,Clear,200,2013-08-10 12:35:00
6:55 AM,57.2,48.2,72,30.17,10.0,SW,8.1,-,N/A,,Clear,230,2013-08-10 12:55:00
7:15 AM,57.2,48.2,72,30.18,10.0,SW,8.1,-,N/A,,Clear,230,2013-08-10 13:15:00
7:36 AM,60.8,48.2,63,30.18,10.0,SW,9.2,-,N/A,,Clear,230,2013-08-10 13:36:00
8:15 AM,62.6,46.4,55,30.17,10.0,SSW,16.1,-,N/A,,Clear,210,2013-08-10 14:15:00
8:35 AM,64.4,46.4,52,30.17,10.0,SSW,12.7,-,N/A,,Clear,200,2013-08-10 14:35:00
8:55 AM,66.2,48.2,52,30.16,10.0,South,12.7,-,N/A,,Clear,170,2013-08-10 14:55:00
9:15 AM,66.2,48.2,52,30.16,10.0,SSW,17.3,-,N/A,,Clear,200,2013-08-10 15:15:00
9:35 AM,69.8,48.2,46,30.17,10.0,SSW,17.3,21.9,N/A,,Clear,210,2013-08-10 15:35:00
9:55 AM,71.6,48.2,43,30.16,10.0,South,15.0,-,N/A,,Clear,190,2013-08-10 15:55:00
10:15 AM,73.4,46.4,38,30.16,10.0,SSW,11.5,-,N/A,,Clear,200,2013-08-10 16:15:00
10:35 AM,75.2,46.4,36,30.16,10.0,SSE,8.1,-,N/A,,Clear,150,2013-08-10 16:35:00
10:55 AM,75.2,48.2,38,30.15,10.0,ESE,6.9,-,N/A,,Clear,120,2013-08-10 16:55:00
11:15 AM,77.0,48.2,36,30.15,10.0,SSE,4.6,-,N/A,,Clear,150,2013-08-10 17:15:00
11:35 AM,78.8,46.4,32,30.14,10.0,Calm,Calm,-,N/A,,Clear,0,2013-08-10 17:35:00
11:55 AM,80.6,46.4,30,30.13,10.0,East,8.1,-,N/A,,Clear,90,2013-08-10 17:55:00
12:15 PM,80.6,46.4,30,30.13,10.0,ENE,9.2,-,N/A,,Clear,60,2013-08-10 18:15:00
12:35 PM,82.4,44.6,26,30.12,10.0,East,5.8,-,N/A,,Clear,90,2013-08-10 18:35:00
12:55 PM,82.4,46.4,28,30.11,10.0,ENE,10.4,-,N/A,,Clear,60,2013-08-10 18:55:00
1:15 PM,82.4,44.6,26,30.10,10.0,ENE,11.5,-,N/A,Thunderstorm,Clear,70,2013-08-10 19:15:00
1:35 PM,80.6,44.6,28,30.13,10.0,NE,6.9,-,N/A,Thunderstorm,Clear,40,2013-08-10 19:35:00
1:55 PM,77.0,39.2,26,30.13,10.0,North,13.8,19.6,N/A,,Mostly Cloudy,10,2013-08-10 19:55:00
2:15 PM,77.0,37.4,24,30.13,9.0,ENE,9.2,-,N/A,Thunderstorm,Thunderstorm,60,2013-08-10 20:15:00
2:35 PM,78.8,35.6,21,30.13,10.0,ENE,11.5,-,N/A,Thunderstorm,Mostly Cloudy,60,2013-08-10 20:35:00
2:55 PM,77.0,37.4,24,30.14,10.0,East,5.8,-,N/A,,Overcast,90,2013-08-10 20:55:00
3:15 PM,78.8,41.0,26,30.13,10.0,ENE,9.2,17.3,N/A,Thunderstorm,Scattered Clouds,70,2013-08-10 21:15:00
3:35 PM,78.8,42.8,28,30.13,10.0,NE,11.5,-,N/A,,Scattered Clouds,50,2013-08-10 21:35:00
3:55 PM,78.8,44.6,30,30.14,10.0,NNE,10.4,-,N/A,,Partly Cloudy,20,2013-08-10 21:55:00
4:15 PM,78.8,46.4,32,30.15,10.0,NW,15.0,21.9,N/A,,Clear,320,2013-08-10 22:15:00
4:35 PM,78.8,46.4,32,30.14,10.0,NW,11.5,23.0,N/A,,Clear,320,2013-08-10 22:35:00
4:55 PM,75.2,44.6,34,30.16,10.0,WNW,9.2,20.7,N/A,,Clear,300,2013-08-10 22:55:00
5:15 PM,78.8,44.6,30,30.15,10.0,NNW,8.1,-,N/A,,Partly Cloudy,340,2013-08-10 23:15:00
5:35 PM,77.0,44.6,32,30.14,10.0,North,3.5,-,N/A,,Partly Cloudy,350,2013-08-10 23:35:00
5:55 PM,78.8,46.4,32,30.15,10.0,NW,10.4,-,N/A,,Clear,310,2013-08-10 23:55:00
6:15 PM,75.2,44.6,34,30.15,10.0,WNW,3.5,-,N/A,,Clear,300,2013-08-11 00:15:00
6:35 PM,77.0,46.4,34,30.15,10.0,NW,6.9,-,N/A,,Partly Cloudy,320,2013-08-11 00:35:00
6:55 PM,75.2,46.4,36,30.16,10.0,NW,8.1,-,N/A,,Scattered Clouds,320,2013-08-11 00:55:00
7:15 PM,73.4,44.6,36,30.17,10.0,NW,6.9,-,N/A,,Mostly Cloudy,320,2013-08-11 01:15:00
7:35 PM,73.4,44.6,36,30.17,10.0,NW,5.8,-,N/A,,Overcast,320,2013-08-11 01:35:00
7:55 PM,71.6,44.6,38,30.18,10.0,WSW,3.5,-,N/A,,Overcast,240,2013-08-11 01:55:00
8:15 PM,71.6,42.8,35,30.15,10.0,NE,10.4,-,N/A,,Overcast,40,2013-08-11 02:15:00
8:35 PM,71.6,42.8,35,30.16,10.0,NNE,4.6,-,N/A,,Partly Cloudy,20,2013-08-11 02:35:00
8:55 PM,69.8,44.6,40,30.17,10.0,NW,3.5,-,N/A,,Clear,310,2013-08-11 02:55:00
9:15 PM,69.8,42.8,38,30.17,10.0,SE,3.5,-,N/A,,Partly Cloudy,140,2013-08-11 03:15:00
9:35 PM,69.8,42.8,38,30.18,10.0,Calm,Calm,-,N/A,,Partly Cloudy,0,2013-08-11 03:35:00
9:55 PM,69.8,41.0,35,30.18,10.0,SSW,6.9,-,N/A,,Clear,200,2013-08-11 03:55:00
10:15 PM,69.8,42.8,38,30.17,10.0,South,6.9,-,N/A,,Clear,190,2013-08-11 04:15:00
10:35 PM,69.8,41.0,35,30.17,10.0,South,8.1,-,N/A,,Clear,180,2013-08-11 04:35:00
11:15 PM,69.8,42.8,38,30.17,10.0,SW,9.2,-,N/A,,Clear,230,2013-08-11 05:15:00
11:35 PM,69.8,44.6,40,30.16,10.0,WSW,8.1,-,N/A,,Clear,240,2013-08-11 05:35:00
11:55 PM,69.8,42.8,38,30.17,10.0,SW,8.1,-,N/A,,Partly Cloudy,220,2013-08-11 05:55:00